Year,Month,Day,Hour,Minute,Value (Times are PST for windspeed in km/hr)
2006,02,05,00,00,21.50
2006,02,05,00,01,16.10
2006,02,05,00,02,15.60
2006,02,05,00,03,14.50
2006,02,05,00,04,16.50
2006,02,05,00,05,14.60
2006,02,05,00,06,14.30
2006,02,05,00,07,10.50
2006,02,05,00,08,12.90
2006,02,05,00,09,15.00
2006,02,05,00,10,12.30
2006,02,05,00,11,17.10
2006,02,05,00,12,17.50
2006,02,05,00,13,14.90
2006,02,05,00,14,14.40
2006,02,05,00,15,17.30
2006,02,05,00,16,14.60
2006,02,05,00,17,10.20
2006,02,05,00,18,13.30
2006,02,05,00,19,14.30
2006,02,05,00,20,15.20
2006,02,05,00,21,17.00
2006,02,05,00,22,14.20
2006,02,05,00,23,17.40
2006,02,05,00,24,12.10
2006,02,05,00,25,16.00
2006,02,05,00,26,14.30
2006,02,05,00,27,16.40
2006,02,05,00,28,14.10
2006,02,05,00,29,13.00
2006,02,05,00,30,12.40
2006,02,05,00,31,12.60
2006,02,05,00,32,7.20
2006,02,05,00,33,14.40
2006,02,05,00,34,11.80
2006,02,05,00,35,11.60
2006,02,05,00,36,5.60
2006,02,05,00,37,11.30
2006,02,05,00,38,13.40
2006,02,05,00,39,11.90
2006,02,05,00,40,12.20
2006,02,05,00,41,15.20
2006,02,05,00,42,6.90
2006,02,05,00,43,9.50
2006,02,05,00,44,12.90
2006,02,05,00,45,8.00
2006,02,05,00,46,7.30
2006,02,05,00,47,10.00
2006,02,05,00,48,10.60
2006,02,05,00,49,7.20
2006,02,05,00,50,10.50
2006,02,05,00,51,10.90
2006,02,05,00,52,12.60
2006,02,05,00,53,10.40
2006,02,05,00,54,8.60
2006,02,05,00,55,10.30
2006,02,05,00,56,9.90
2006,02,05,00,57,9.30
2006,02,05,00,58,12.40
2006,02,05,00,59,12.90
2006,02,05,01,00,11.20
2006,02,05,01,01,6.70
2006,02,05,01,02,8.10
2006,02,05,01,03,9.70
2006,02,05,01,04,9.20
2006,02,05,01,05,12.70
2006,02,05,01,06,10.10
2006,02,05,01,07,9.70
2006,02,05,01,08,7.60
2006,02,05,01,09,13.80
2006,02,05,01,10,13.80
2006,02,05,01,11,12.50
2006,02,05,01,12,13.70
2006,02,05,01,13,17.80
2006,02,05,01,14,20.00
2006,02,05,01,15,16.90
2006,02,05,01,16,17.40
2006,02,05,01,17,13.80
2006,02,05,01,18,16.30
2006,02,05,01,19,14.70
2006,02,05,01,20,13.80
2006,02,05,01,21,17.80
2006,02,05,01,22,16.90
2006,02,05,01,23,19.10
2006,02,05,01,24,17.30
2006,02,05,01,25,13.80
2006,02,05,01,26,16.70
2006,02,05,01,27,9.70
2006,02,05,01,28,13.00
2006,02,05,01,29,14.10
2006,02,05,01,30,14.80
2006,02,05,01,31,13.20
2006,02,05,01,32,14.30
2006,02,05,01,33,19.20
2006,02,05,01,34,15.70
2006,02,05,01,35,14.40
2006,02,05,01,36,15.40
2006,02,05,01,37,13.50
2006,02,05,01,38,11.10
2006,02,05,01,39,12.20
2006,02,05,01,40,13.00
2006,02,05,01,41,16.30
2006,02,05,01,42,15.10
2006,02,05,01,43,14.30
2006,02,05,01,44,15.20
2006,02,05,01,45,13.00
2006,02,05,01,46,14.60
2006,02,05,01,47,13.40
2006,02,05,01,48,13.60
2006,02,05,01,49,11.80
2006,02,05,01,50,14.80
2006,02,05,01,51,14.70
2006,02,05,01,52,10.30
2006,02,05,01,53,8.40
2006,02,05,01,54,17.20
2006,02,05,01,55,13.80
2006,02,05,01,56,9.00
2006,02,05,01,57,9.30
2006,02,05,01,58,10.50
2006,02,05,01,59,8.70
2006,02,05,02,00,15.60
2006,02,05,02,01,12.30
2006,02,05,02,02,12.60
2006,02,05,02,03,12.40
2006,02,05,02,04,10.20
2006,02,05,02,05,11.40
2006,02,05,02,06,11.50
2006,02,05,02,07,10.60
2006,02,05,02,08,11.90
2006,02,05,02,09,10.30
2006,02,05,02,10,9.70
2006,02,05,02,11,10.70
2006,02,05,02,12,15.70
2006,02,05,02,13,10.60
2006,02,05,02,14,6.50
2006,02,05,02,15,7.30
2006,02,05,02,16,13.40
2006,02,05,02,17,9.60
2006,02,05,02,18,7.60
2006,02,05,02,19,12.30
2006,02,05,02,20,7.40
2006,02,05,02,21,12.40
2006,02,05,02,22,12.70
2006,02,05,02,23,9.50
2006,02,05,02,24,10.90
2006,02,05,02,25,21.30
2006,02,05,02,26,17.50
2006,02,05,02,27,16.80
2006,02,05,02,28,13.80
2006,02,05,02,29,15.00
2006,02,05,02,30,10.30
2006,02,05,02,31,9.20
2006,02,05,02,32,9.10
2006,02,05,02,33,13.40
2006,02,05,02,34,10.00
2006,02,05,02,35,8.70
2006,02,05,02,36,8.90
2006,02,05,02,37,9.10
2006,02,05,02,38,5.30
2006,02,05,02,39,8.40
2006,02,05,02,40,8.40
2006,02,05,02,41,7.90
2006,02,05,02,42,14.90
2006,02,05,02,43,12.20
2006,02,05,02,44,11.90
2006,02,05,02,45,15.80
2006,02,05,02,46,15.50
2006,02,05,02,47,15.00
2006,02,05,02,48,9.60
2006,02,05,02,49,8.50
2006,02,05,02,50,16.20
2006,02,05,02,51,12.90
2006,02,05,02,52,12.50
2006,02,05,02,53,14.20
2006,02,05,02,54,8.40
2006,02,05,02,55,13.00
2006,02,05,02,56,12.20
2006,02,05,02,57,12.40
2006,02,05,02,58,9.70
2006,02,05,02,59,14.60
2006,02,05,03,00,11.80
2006,02,05,03,01,11.70
2006,02,05,03,02,10.90
2006,02,05,03,03,9.10
2006,02,05,03,04,10.30
2006,02,05,03,05,9.60
2006,02,05,03,06,10.10
2006,02,05,03,07,9.30
2006,02,05,03,08,8.90
2006,02,05,03,09,7.60
2006,02,05,03,10,4.60
2006,02,05,03,11,7.10
2006,02,05,03,12,6.40
2006,02,05,03,13,6.30
2006,02,05,03,14,2.80
2006,02,05,03,15,4.10
2006,02,05,03,16,3.60
2006,02,05,03,17,6.50
2006,02,05,03,18,3.30
2006,02,05,03,19,3.40
2006,02,05,03,20,4.70
2006,02,05,03,21,3.50
2006,02,05,03,22,2.20
2006,02,05,03,23,3.60
2006,02,05,03,24,2.60
2006,02,05,03,25,0.80
2006,02,05,03,26,2.30
2006,02,05,03,27,1.70
2006,02,05,03,28,2.60
2006,02,05,03,29,2.50
2006,02,05,03,30,2.10
2006,02,05,03,31,2.00
2006,02,05,03,32,1.90
2006,02,05,03,33,1.60
2006,02,05,03,34,2.00
2006,02,05,03,35,0.70
2006,02,05,03,36,1.50
2006,02,05,03,37,1.40
2006,02,05,03,38,1.40
2006,02,05,03,39,2.20
2006,02,05,03,40,1.50
2006,02,05,03,41,2.60
2006,02,05,03,42,1.30
2006,02,05,03,43,2.40
2006,02,05,03,44,2.40
2006,02,05,03,45,3.00
2006,02,05,03,46,3.50
2006,02,05,03,47,2.90
2006,02,05,03,48,4.30
2006,02,05,03,49,4.60
2006,02,05,03,50,3.00
2006,02,05,03,51,3.30
2006,02,05,03,52,3.00
2006,02,05,03,53,1.50
2006,02,05,03,54,2.50
2006,02,05,03,55,3.80
2006,02,05,03,56,0.50
2006,02,05,03,57,1.50
2006,02,05,03,58,3.10
2006,02,05,03,59,2.40
2006,02,05,04,00,2.70
2006,02,05,04,01,0.70
2006,02,05,04,02,2.10
2006,02,05,04,03,1.90
2006,02,05,04,04,2.30
2006,02,05,04,05,3.10
2006,02,05,04,06,2.30
2006,02,05,04,07,2.40
2006,02,05,04,08,1.80
2006,02,05,04,09,2.10
2006,02,05,04,10,1.80
2006,02,05,04,11,0.70
2006,02,05,04,12,2.60
2006,02,05,04,13,2.30
2006,02,05,04,14,1.90
2006,02,05,04,15,2.30
2006,02,05,04,16,3.00
2006,02,05,04,17,1.00
2006,02,05,04,18,2.10
2006,02,05,04,19,1.50
2006,02,05,04,20,2.50
2006,02,05,04,21,3.20
2006,02,05,04,22,3.40
2006,02,05,04,23,3.30
2006,02,05,04,24,3.60
2006,02,05,04,25,2.80
2006,02,05,04,26,2.20
2006,02,05,04,27,3.00
2006,02,05,04,28,2.30
2006,02,05,04,29,2.60
2006,02,05,04,30,2.90
2006,02,05,04,31,3.10
2006,02,05,04,32,2.70
2006,02,05,04,33,3.20
2006,02,05,04,34,6.50
2006,02,05,04,35,7.60
2006,02,05,04,36,5.40
2006,02,05,04,37,5.70
2006,02,05,04,38,6.80
2006,02,05,04,39,5.50
2006,02,05,04,40,6.70
2006,02,05,04,41,4.10
2006,02,05,04,42,6.50
2006,02,05,04,43,5.20
2006,02,05,04,44,6.10
2006,02,05,04,45,6.90
2006,02,05,04,46,6.30
2006,02,05,04,47,6.30
2006,02,05,04,48,8.30
2006,02,05,04,49,11.80
2006,02,05,04,50,7.10
2006,02,05,04,51,7.20
2006,02,05,04,52,11.50
2006,02,05,04,53,7.00
2006,02,05,04,54,11.30
2006,02,05,04,55,10.30
2006,02,05,04,56,7.60
2006,02,05,04,57,7.20
2006,02,05,04,58,5.70
2006,02,05,04,59,8.20
2006,02,05,05,00,11.20
2006,02,05,05,01,5.00
2006,02,05,05,02,6.40
2006,02,05,05,03,10.80
2006,02,05,05,04,6.30
2006,02,05,05,05,8.40
2006,02,05,05,06,9.10
2006,02,05,05,07,7.00
2006,02,05,05,08,5.20
2006,02,05,05,09,5.80
2006,02,05,05,10,3.10
2006,02,05,05,11,5.40
2006,02,05,05,12,4.50
2006,02,05,05,13,5.10
2006,02,05,05,14,4.60
2006,02,05,05,15,7.00
2006,02,05,05,16,3.60
2006,02,05,05,17,3.30
2006,02,05,05,18,6.80
2006,02,05,05,19,5.90
2006,02,05,05,20,5.10
2006,02,05,05,21,6.90
2006,02,05,05,22,6.40
2006,02,05,05,23,7.60
2006,02,05,05,24,4.10
2006,02,05,05,25,3.50
2006,02,05,05,26,3.80
2006,02,05,05,27,3.20
2006,02,05,05,28,4.30
2006,02,05,05,29,5.30
2006,02,05,05,30,3.90
2006,02,05,05,31,1.70
2006,02,05,05,32,1.50
2006,02,05,05,33,4.30
2006,02,05,05,34,4.00
2006,02,05,05,35,4.80
2006,02,05,05,36,6.80
2006,02,05,05,37,4.10
2006,02,05,05,38,4.70
2006,02,05,05,39,4.40
2006,02,05,05,40,3.90
2006,02,05,05,41,3.60
2006,02,05,05,42,1.80
2006,02,05,05,43,4.20
2006,02,05,05,44,5.10
2006,02,05,05,45,5.70
2006,02,05,05,46,6.00
2006,02,05,05,47,6.20
2006,02,05,05,48,6.00
2006,02,05,05,49,5.60
2006,02,05,05,50,6.30
2006,02,05,05,51,5.70
2006,02,05,05,52,2.40
2006,02,05,05,53,3.30
2006,02,05,05,54,2.60
2006,02,05,05,55,4.20
2006,02,05,05,56,4.10
2006,02,05,05,57,2.10
2006,02,05,05,58,3.10
2006,02,05,05,59,5.00
2006,02,05,06,00,3.90
2006,02,05,06,01,4.80
2006,02,05,06,02,5.20
2006,02,05,06,03,5.60
2006,02,05,06,04,6.90
2006,02,05,06,05,5.80
2006,02,05,06,06,4.00
2006,02,05,06,07,5.70
2006,02,05,06,08,8.90
2006,02,05,06,09,12.50
2006,02,05,06,10,9.70
2006,02,05,06,11,9.00
2006,02,05,06,12,9.60
2006,02,05,06,13,8.00
2006,02,05,06,14,7.70
2006,02,05,06,15,5.70
2006,02,05,06,16,6.50
2006,02,05,06,17,10.40
2006,02,05,06,18,7.90
2006,02,05,06,19,5.90
2006,02,05,06,20,6.10
2006,02,05,06,21,3.70
2006,02,05,06,22,4.90
2006,02,05,06,23,6.40
2006,02,05,06,24,6.20
2006,02,05,06,25,3.10
2006,02,05,06,26,2.50
2006,02,05,06,27,3.70
2006,02,05,06,28,5.60
2006,02,05,06,29,4.80
2006,02,05,06,30,1.80
2006,02,05,06,31,4.50
2006,02,05,06,32,4.50
2006,02,05,06,33,3.80
2006,02,05,06,34,1.60
2006,02,05,06,35,1.60
2006,02,05,06,36,2.20
2006,02,05,06,37,1.20
2006,02,05,06,38,1.80
2006,02,05,06,39,3.40
2006,02,05,06,40,1.60
2006,02,05,06,41,2.30
2006,02,05,06,42,3.20
2006,02,05,06,43,0.80
2006,02,05,06,44,0.70
2006,02,05,06,45,1.20
2006,02,05,06,46,0.10
2006,02,05,06,47,0.60
2006,02,05,06,48,1.90
2006,02,05,06,49,1.90
2006,02,05,06,50,2.60
2006,02,05,06,51,2.90
2006,02,05,06,52,2.10
2006,02,05,06,53,2.20
2006,02,05,06,54,0.60
2006,02,05,06,55,1.10
2006,02,05,06,56,1.00
2006,02,05,06,57,0.80
2006,02,05,06,58,0.30
2006,02,05,06,59,0.00
2006,02,05,07,00,1.40
2006,02,05,07,01,1.10
2006,02,05,07,02,0.20
2006,02,05,07,03,1.50
2006,02,05,07,04,1.20
2006,02,05,07,05,1.40
2006,02,05,07,06,2.00
2006,02,05,07,07,2.90
2006,02,05,07,08,2.70
2006,02,05,07,09,1.90
2006,02,05,07,10,2.20
2006,02,05,07,11,3.00
2006,02,05,07,12,4.10
2006,02,05,07,13,2.50
2006,02,05,07,14,2.90
2006,02,05,07,15,1.80
2006,02,05,07,16,4.40
2006,02,05,07,17,5.60
2006,02,05,07,18,4.10
2006,02,05,07,19,2.60
2006,02,05,07,20,1.90
2006,02,05,07,21,2.70
2006,02,05,07,22,2.50
2006,02,05,07,23,4.00
2006,02,05,07,24,3.50
2006,02,05,07,25,3.60
2006,02,05,07,26,1.00
2006,02,05,07,27,3.00
2006,02,05,07,28,2.00
2006,02,05,07,29,2.10
2006,02,05,07,30,3.00
2006,02,05,07,31,1.90
2006,02,05,07,32,2.80
2006,02,05,07,33,2.10
2006,02,05,07,34,2.30
2006,02,05,07,35,1.90
2006,02,05,07,36,3.70
2006,02,05,07,37,2.10
2006,02,05,07,38,2.50
2006,02,05,07,39,1.50
2006,02,05,07,40,1.00
2006,02,05,07,41,3.70
2006,02,05,07,42,1.40
2006,02,05,07,43,0.80
2006,02,05,07,44,2.70
2006,02,05,07,45,2.00
2006,02,05,07,46,2.70
2006,02,05,07,47,1.80
2006,02,05,07,48,1.10
2006,02,05,07,49,1.10
2006,02,05,07,50,2.60
2006,02,05,07,51,2.30
2006,02,05,07,52,2.60
2006,02,05,07,53,0.30
2006,02,05,07,54,0.40
2006,02,05,07,55,0.50
2006,02,05,07,56,0.30
2006,02,05,07,57,0.00
2006,02,05,07,58,0.00
2006,02,05,07,59,0.00
2006,02,05,08,00,0.00
2006,02,05,08,01,0.00
2006,02,05,08,02,0.40
2006,02,05,08,03,0.50
2006,02,05,08,04,1.00
2006,02,05,08,05,0.20
2006,02,05,08,06,0.00
2006,02,05,08,07,0.00
2006,02,05,08,08,0.00
2006,02,05,08,09,0.00
2006,02,05,08,10,1.40
2006,02,05,08,11,1.60
2006,02,05,08,12,1.10
2006,02,05,08,13,0.90
2006,02,05,08,14,0.80
2006,02,05,08,15,1.90
2006,02,05,08,16,0.80
2006,02,05,08,17,0.30
2006,02,05,08,18,0.70
2006,02,05,08,19,0.70
2006,02,05,08,20,0.20
2006,02,05,08,21,1.10
2006,02,05,08,22,0.40
2006,02,05,08,23,1.20
2006,02,05,08,24,0.80
2006,02,05,08,25,0.10
2006,02,05,08,26,0.80
2006,02,05,08,27,2.30
2006,02,05,08,28,1.40
2006,02,05,08,29,2.00
2006,02,05,08,30,2.00
2006,02,05,08,31,1.90
2006,02,05,08,32,1.10
2006,02,05,08,33,1.20
2006,02,05,08,34,0.60
2006,02,05,08,35,1.10
2006,02,05,08,36,0.40
2006,02,05,08,37,1.00
2006,02,05,08,38,1.90
2006,02,05,08,39,0.50
2006,02,05,08,40,0.80
2006,02,05,08,41,1.50
2006,02,05,08,42,0.40
2006,02,05,08,43,0.30
2006,02,05,08,44,0.00
2006,02,05,08,45,0.00
2006,02,05,08,46,0.00
2006,02,05,08,47,0.00
2006,02,05,08,48,0.00
2006,02,05,08,49,0.20
2006,02,05,08,50,1.80
2006,02,05,08,51,1.10
2006,02,05,08,52,1.50
2006,02,05,08,53,1.50
2006,02,05,08,54,1.20
2006,02,05,08,55,0.20
2006,02,05,08,56,0.90
2006,02,05,08,57,0.10
2006,02,05,08,58,0.00
2006,02,05,08,59,0.00
2006,02,05,09,00,0.00
2006,02,05,09,01,0.00
2006,02,05,09,02,0.30
2006,02,05,09,03,0.00
2006,02,05,09,04,0.00
2006,02,05,09,05,0.00
2006,02,05,09,06,0.00
2006,02,05,09,07,0.00
2006,02,05,09,08,0.00
2006,02,05,09,09,0.00
2006,02,05,09,10,0.70
2006,02,05,09,11,1.70
2006,02,05,09,12,1.60
2006,02,05,09,13,1.70
2006,02,05,09,14,2.90
2006,02,05,09,15,4.20
2006,02,05,09,16,3.40
2006,02,05,09,17,2.60
2006,02,05,09,18,3.50
2006,02,05,09,19,3.50
2006,02,05,09,20,3.40
2006,02,05,09,21,1.10
2006,02,05,09,22,1.70
2006,02,05,09,23,1.90
2006,02,05,09,24,1.30
2006,02,05,09,25,0.90
2006,02,05,09,26,0.00
2006,02,05,09,27,0.00
2006,02,05,09,28,0.60
2006,02,05,09,29,0.70
2006,02,05,09,30,0.60
2006,02,05,09,31,1.00
2006,02,05,09,32,0.30
2006,02,05,09,33,1.50
2006,02,05,09,34,1.90
2006,02,05,09,35,2.60
2006,02,05,09,36,1.10
2006,02,05,09,37,0.00
2006,02,05,09,38,0.00
2006,02,05,09,39,1.60
2006,02,05,09,40,2.50
2006,02,05,09,41,1.80
2006,02,05,09,42,1.80
2006,02,05,09,43,3.50
2006,02,05,09,44,3.00
2006,02,05,09,45,2.50
2006,02,05,09,46,2.00
2006,02,05,09,47,1.90
2006,02,05,09,48,1.10
2006,02,05,09,49,0.80
2006,02,05,09,50,0.20
2006,02,05,09,51,0.60
2006,02,05,09,52,1.80
2006,02,05,09,53,1.90
2006,02,05,09,54,3.00
2006,02,05,09,55,3.40
2006,02,05,09,56,3.00
2006,02,05,09,57,2.70
2006,02,05,09,58,3.50
2006,02,05,09,59,5.00
2006,02,05,10,00,3.90
2006,02,05,10,01,2.60
2006,02,05,10,02,2.20
2006,02,05,10,03,2.60
2006,02,05,10,04,3.20
2006,02,05,10,05,3.50
2006,02,05,10,06,2.00
2006,02,05,10,07,2.10
2006,02,05,10,08,2.50
2006,02,05,10,09,4.10
2006,02,05,10,10,2.90
2006,02,05,10,11,3.30
2006,02,05,10,12,4.00
2006,02,05,10,13,3.50
2006,02,05,10,14,5.00
2006,02,05,10,15,5.10
2006,02,05,10,16,3.60
2006,02,05,10,17,4.70
2006,02,05,10,18,3.00
2006,02,05,10,19,4.30
2006,02,05,10,20,4.00
2006,02,05,10,21,4.70
2006,02,05,10,22,5.10
2006,02,05,10,23,3.90
2006,02,05,10,24,3.70
2006,02,05,10,25,2.40
2006,02,05,10,26,3.00
2006,02,05,10,27,2.10
2006,02,05,10,28,3.90
2006,02,05,10,29,5.30
2006,02,05,10,30,3.40
2006,02,05,10,31,4.70
2006,02,05,10,32,2.90
2006,02,05,10,33,3.90
2006,02,05,10,34,4.60
2006,02,05,10,35,3.90
2006,02,05,10,36,4.70
2006,02,05,10,37,5.50
2006,02,05,10,38,5.90
2006,02,05,10,39,5.50
2006,02,05,10,40,4.80
2006,02,05,10,41,4.40
2006,02,05,10,42,4.10
2006,02,05,10,43,3.30
2006,02,05,10,44,3.40
2006,02,05,10,45,3.00
2006,02,05,10,46,3.00
2006,02,05,10,47,4.10
2006,02,05,10,48,3.90
2006,02,05,10,49,4.10
2006,02,05,10,50,3.50
2006,02,05,10,51,5.10
2006,02,05,10,52,5.60
2006,02,05,10,53,6.20
2006,02,05,10,54,5.60
2006,02,05,10,55,6.80
2006,02,05,10,56,6.50
2006,02,05,10,57,6.90
2006,02,05,10,58,6.00
2006,02,05,10,59,4.40
2006,02,05,11,00,3.70
2006,02,05,11,01,5.60
2006,02,05,11,02,6.20
2006,02,05,11,03,4.40
2006,02,05,11,04,5.50
2006,02,05,11,05,4.50
2006,02,05,11,06,4.90
2006,02,05,11,07,5.20
2006,02,05,11,08,4.70
2006,02,05,11,09,4.40
2006,02,05,11,10,3.90
2006,02,05,11,11,2.50
2006,02,05,11,12,4.20
2006,02,05,11,13,3.90
2006,02,05,11,14,3.40
2006,02,05,11,15,1.40
2006,02,05,11,16,4.10
2006,02,05,11,17,4.10
2006,02,05,11,18,4.10
2006,02,05,11,19,3.60
2006,02,05,11,20,4.00
2006,02,05,11,21,3.00
2006,02,05,11,22,2.30
2006,02,05,11,23,4.20
2006,02,05,11,24,5.10
2006,02,05,11,25,2.80
2006,02,05,11,26,4.80
2006,02,05,11,27,4.60
2006,02,05,11,28,3.70
2006,02,05,11,29,2.20
2006,02,05,11,30,3.30
2006,02,05,11,31,2.70
2006,02,05,11,32,2.30
2006,02,05,11,33,2.50
2006,02,05,11,34,2.50
2006,02,05,11,35,1.70
2006,02,05,11,36,1.80
2006,02,05,11,37,1.90
2006,02,05,11,38,1.40
2006,02,05,11,39,3.10
2006,02,05,11,40,1.60
2006,02,05,11,41,1.50
2006,02,05,11,42,0.50
2006,02,05,11,43,0.00
2006,02,05,11,44,0.00
2006,02,05,11,45,0.00
2006,02,05,11,46,0.00
2006,02,05,11,47,1.40
2006,02,05,11,48,2.30
2006,02,05,11,49,2.60
2006,02,05,11,50,2.70
2006,02,05,11,51,2.60
2006,02,05,11,52,2.00
2006,02,05,11,53,0.70
2006,02,05,11,54,0.00
2006,02,05,11,55,0.40
2006,02,05,11,56,1.50
2006,02,05,11,57,1.20
2006,02,05,11,58,1.80
2006,02,05,11,59,3.10
2006,02,05,12,00,2.30
2006,02,05,12,01,3.00
2006,02,05,12,02,2.60
2006,02,05,12,03,1.90
2006,02,05,12,04,3.20
2006,02,05,12,05,3.00
2006,02,05,12,06,3.90
2006,02,05,12,07,5.00
2006,02,05,12,08,3.00
2006,02,05,12,09,1.50
2006,02,05,12,10,1.60
2006,02,05,12,11,2.20
2006,02,05,12,12,2.20
2006,02,05,12,13,2.20
2006,02,05,12,14,2.30
2006,02,05,12,15,2.50
2006,02,05,12,16,3.10
2006,02,05,12,17,3.60
2006,02,05,12,18,2.00
2006,02,05,12,19,2.00
2006,02,05,12,20,2.60
2006,02,05,12,21,2.10
2006,02,05,12,22,2.20
2006,02,05,12,23,3.30
2006,02,05,12,24,3.80
2006,02,05,12,25,3.20
2006,02,05,12,26,6.00
2006,02,05,12,27,1.30
2006,02,05,12,28,1.50
2006,02,05,12,29,2.80
2006,02,05,12,30,1.70
2006,02,05,12,31,3.60
2006,02,05,12,32,4.30
2006,02,05,12,33,3.90
2006,02,05,12,34,3.60
2006,02,05,12,35,3.50
2006,02,05,12,36,3.60
2006,02,05,12,37,3.00
2006,02,05,12,38,3.70
2006,02,05,12,39,4.30
2006,02,05,12,40,3.80
2006,02,05,12,41,4.70
2006,02,05,12,42,3.90
2006,02,05,12,43,4.20
2006,02,05,12,44,2.20
2006,02,05,12,45,4.70
2006,02,05,12,46,4.10
2006,02,05,12,47,3.90
2006,02,05,12,48,3.80
2006,02,05,12,49,4.30
2006,02,05,12,50,4.30
2006,02,05,12,51,4.10
2006,02,05,12,52,2.30
2006,02,05,12,53,2.50
2006,02,05,12,54,2.10
2006,02,05,12,55,3.70
2006,02,05,12,56,2.30
2006,02,05,12,57,2.80
2006,02,05,12,58,0.00
2006,02,05,12,59,0.30
2006,02,05,13,00,1.00
2006,02,05,13,01,3.90
2006,02,05,13,02,2.80
2006,02,05,13,03,3.30
2006,02,05,13,04,3.00
2006,02,05,13,05,3.30
2006,02,05,13,06,3.50
2006,02,05,13,07,1.50
2006,02,05,13,08,0.00
2006,02,05,13,09,3.30
2006,02,05,13,10,4.00
2006,02,05,13,11,3.60
2006,02,05,13,12,3.20
2006,02,05,13,13,3.40
2006,02,05,13,14,2.70
2006,02,05,13,15,3.40
2006,02,05,13,16,4.60
2006,02,05,13,17,4.90
2006,02,05,13,18,5.70
2006,02,05,13,19,4.40
2006,02,05,13,20,3.00
2006,02,05,13,21,2.90
2006,02,05,13,22,3.30
2006,02,05,13,23,2.80
2006,02,05,13,24,5.00
2006,02,05,13,25,3.40
2006,02,05,13,26,3.00
2006,02,05,13,27,2.90
2006,02,05,13,28,2.30
2006,02,05,13,29,3.30
2006,02,05,13,30,2.40
2006,02,05,13,31,3.10
2006,02,05,13,32,2.10
2006,02,05,13,33,1.40
2006,02,05,13,34,1.30
2006,02,05,13,35,4.60
2006,02,05,13,36,2.60
2006,02,05,13,37,1.50
2006,02,05,13,38,2.90
2006,02,05,13,39,3.70
2006,02,05,13,40,4.00
2006,02,05,13,41,5.00
2006,02,05,13,42,4.80
2006,02,05,13,43,3.40
2006,02,05,13,44,2.20
2006,02,05,13,45,2.40
2006,02,05,13,46,4.30
2006,02,05,13,47,4.60
2006,02,05,13,48,4.70
2006,02,05,13,49,5.10
2006,02,05,13,50,3.40
2006,02,05,13,51,6.40
2006,02,05,13,52,5.60
2006,02,05,13,53,3.80
2006,02,05,13,54,5.20
2006,02,05,13,55,5.60
2006,02,05,13,56,5.30
2006,02,05,13,57,3.00
2006,02,05,13,58,5.50
2006,02,05,13,59,5.20
2006,02,05,14,00,5.10
2006,02,05,14,01,7.40
2006,02,05,14,02,9.30
2006,02,05,14,03,7.20
2006,02,05,14,04,7.60
2006,02,05,14,05,5.40
2006,02,05,14,06,5.30
2006,02,05,14,07,5.70
2006,02,05,14,08,7.00
2006,02,05,14,09,5.40
2006,02,05,14,10,5.80
2006,02,05,14,11,5.60
2006,02,05,14,12,6.10
2006,02,05,14,13,6.30
2006,02,05,14,14,5.10
2006,02,05,14,15,5.40
2006,02,05,14,16,5.10
2006,02,05,14,17,6.00
2006,02,05,14,18,5.60
2006,02,05,14,19,5.40
2006,02,05,14,20,4.20
2006,02,05,14,21,1.90
2006,02,05,14,22,1.40
2006,02,05,14,23,4.10
2006,02,05,14,24,3.90
2006,02,05,14,25,2.90
2006,02,05,14,26,2.30
2006,02,05,14,27,5.40
2006,02,05,14,28,5.40
2006,02,05,14,29,5.60
2006,02,05,14,30,5.80
2006,02,05,14,31,4.20
2006,02,05,14,32,6.90
2006,02,05,14,33,6.60
2006,02,05,14,34,7.60
2006,02,05,14,35,8.70
2006,02,05,14,36,8.20
2006,02,05,14,37,8.10
2006,02,05,14,38,8.20
2006,02,05,14,39,8.50
2006,02,05,14,40,6.30
2006,02,05,14,41,5.60
2006,02,05,14,42,6.70
2006,02,05,14,43,5.70
2006,02,05,14,44,6.80
2006,02,05,14,45,6.50
2006,02,05,14,46,6.20
2006,02,05,14,47,5.60
2006,02,05,14,48,4.00
2006,02,05,14,49,3.70
2006,02,05,14,50,4.70
2006,02,05,14,51,4.30
2006,02,05,14,52,2.90
2006,02,05,14,53,4.70
2006,02,05,14,54,4.60
2006,02,05,14,55,7.40
2006,02,05,14,56,7.10
2006,02,05,14,57,4.80
2006,02,05,14,58,4.60
2006,02,05,14,59,7.70
2006,02,05,15,00,8.50
2006,02,05,15,01,6.40
2006,02,05,15,02,6.40
2006,02,05,15,03,4.90
2006,02,05,15,04,5.10
2006,02,05,15,05,3.90
2006,02,05,15,06,4.30
2006,02,05,15,07,3.70
2006,02,05,15,08,3.00
2006,02,05,15,09,2.70
2006,02,05,15,10,3.00
2006,02,05,15,11,4.10
2006,02,05,15,12,4.40
2006,02,05,15,13,3.10
2006,02,05,15,14,4.90
2006,02,05,15,15,7.50
2006,02,05,15,16,5.40
2006,02,05,15,17,5.10
2006,02,05,15,18,6.60
2006,02,05,15,19,5.20
2006,02,05,15,20,3.90
2006,02,05,15,21,5.60
2006,02,05,15,22,4.30
2006,02,05,15,23,4.60
2006,02,05,15,24,5.60
2006,02,05,15,25,4.60
2006,02,05,15,26,4.20
2006,02,05,15,27,6.20
2006,02,05,15,28,7.40
2006,02,05,15,29,5.60
2006,02,05,15,30,5.20
2006,02,05,15,31,4.20
2006,02,05,15,32,8.10
2006,02,05,15,33,7.60
2006,02,05,15,34,7.60
2006,02,05,15,35,10.30
2006,02,05,15,36,9.30
2006,02,05,15,37,8.70
2006,02,05,15,38,7.70
2006,02,05,15,39,8.10
2006,02,05,15,40,7.20
2006,02,05,15,41,5.60
2006,02,05,15,42,5.70
2006,02,05,15,43,6.90
2006,02,05,15,44,5.90
2006,02,05,15,45,5.70
2006,02,05,15,46,6.70
2006,02,05,15,47,7.40
2006,02,05,15,48,7.70
2006,02,05,15,49,8.00
2006,02,05,15,50,7.60
2006,02,05,15,51,10.90
2006,02,05,15,52,9.30
2006,02,05,15,53,8.00
2006,02,05,15,54,7.30
2006,02,05,15,55,8.60
2006,02,05,15,56,8.50
2006,02,05,15,57,6.40
2006,02,05,15,58,9.20
2006,02,05,15,59,8.50
2006,02,05,16,00,9.40
2006,02,05,16,01,8.40
2006,02,05,16,02,5.30
2006,02,05,16,03,3.90
2006,02,05,16,04,3.20
2006,02,05,16,05,5.30
2006,02,05,16,06,8.30
2006,02,05,16,07,7.30
2006,02,05,16,08,6.90
2006,02,05,16,09,8.70
2006,02,05,16,10,8.00
2006,02,05,16,11,8.60
2006,02,05,16,12,9.70
2006,02,05,16,13,7.80
2006,02,05,16,14,6.40
2006,02,05,16,15,4.10
2006,02,05,16,16,7.20
2006,02,05,16,17,5.90
2006,02,05,16,18,9.30
2006,02,05,16,19,8.90
2006,02,05,16,20,7.70
2006,02,05,16,21,7.60
2006,02,05,16,22,7.50
2006,02,05,16,23,7.20
2006,02,05,16,24,7.00
2006,02,05,16,25,6.80
2006,02,05,16,26,5.10
2006,02,05,16,27,3.90
2006,02,05,16,28,4.70
2006,02,05,16,29,3.60
2006,02,05,16,30,5.60
2006,02,05,16,31,5.80
2006,02,05,16,32,6.10
2006,02,05,16,33,7.40
2006,02,05,16,34,7.30
2006,02,05,16,35,4.10
2006,02,05,16,36,4.60
2006,02,05,16,37,3.00
2006,02,05,16,38,3.90
2006,02,05,16,39,5.10
2006,02,05,16,40,5.30
2006,02,05,16,41,8.60
2006,02,05,16,42,8.30
2006,02,05,16,43,6.80
2006,02,05,16,44,6.00
2006,02,05,16,45,5.90
2006,02,05,16,46,4.60
2006,02,05,16,47,5.50
2006,02,05,16,48,6.80
2006,02,05,16,49,5.20
2006,02,05,16,50,5.10
2006,02,05,16,51,6.80
2006,02,05,16,52,6.80
2006,02,05,16,53,6.90
2006,02,05,16,54,7.00
2006,02,05,16,55,6.70
2006,02,05,16,56,6.80
2006,02,05,16,57,5.40
2006,02,05,16,58,5.50
2006,02,05,16,59,7.40
2006,02,05,17,00,6.20
2006,02,05,17,01,4.50
2006,02,05,17,02,4.30
2006,02,05,17,03,6.20
2006,02,05,17,04,7.00
2006,02,05,17,05,4.30
2006,02,05,17,06,5.80
2006,02,05,17,07,5.80
2006,02,05,17,08,6.40
2006,02,05,17,09,6.40
2006,02,05,17,10,6.10
2006,02,05,17,11,6.90
2006,02,05,17,12,7.00
2006,02,05,17,13,7.00
2006,02,05,17,14,7.50
2006,02,05,17,15,8.40
2006,02,05,17,16,7.70
2006,02,05,17,17,7.10
2006,02,05,17,18,7.20
2006,02,05,17,19,6.80
2006,02,05,17,20,5.20
2006,02,05,17,21,5.20
2006,02,05,17,22,4.70
2006,02,05,17,23,4.70
2006,02,05,17,24,5.30
2006,02,05,17,25,3.00
2006,02,05,17,26,1.60
2006,02,05,17,27,0.90
2006,02,05,17,28,1.00
2006,02,05,17,29,0.20
2006,02,05,17,30,0.00
2006,02,05,17,31,0.00
2006,02,05,17,32,0.00
2006,02,05,17,33,0.00
2006,02,05,17,34,0.00
2006,02,05,17,35,0.00
2006,02,05,17,36,0.00
2006,02,05,17,37,0.00
2006,02,05,17,38,0.00
2006,02,05,17,39,0.60
2006,02,05,17,40,1.70
2006,02,05,17,41,1.80
2006,02,05,17,42,1.90
2006,02,05,17,43,0.70
2006,02,05,17,44,0.00
2006,02,05,17,45,0.50
2006,02,05,17,46,2.80
2006,02,05,17,47,2.60
2006,02,05,17,48,2.50
2006,02,05,17,49,2.60
2006,02,05,17,50,3.30
2006,02,05,17,51,2.70
2006,02,05,17,52,3.50
2006,02,05,17,53,2.50
2006,02,05,17,54,2.10
2006,02,05,17,55,1.80
2006,02,05,17,56,0.90
2006,02,05,17,57,2.00
2006,02,05,17,58,1.20
2006,02,05,17,59,2.50